Torna al catalogo

STARLINK-35047

AttivoComunicazioniSSO
NORAD 65806·PAYLOAD·🇺🇸 United States

Lanciato Sep 26, 2025 da Vandenberg Space Force Base

Loading…

Prossimi Passaggi (prossime 24 ore)

TLE

AggiornatoSource: CelesTrak SupGP

Epoca: Sep 14, 2026, 20:56 UTC

1 65806C 25218R   26257.87270833  .00006383  00000+0  19824-3 0  2576
2 65806  97.2841 115.3698 0001697  95.4641 284.3888 15.33420882    11

Traccia STARLINK-35047 in tempo reale con AllMySat

Download on the App Store